CZ-6A DEB, 60775

Orbit data source: Space-Track

CZ-6A DEB, 60775 is space debris in LEO originally from a launch on Tue, 06 Aug 2024 UTC launched from the Taiyaun Space Center, China (TSC). Debris objects in space refer to the collection of defunct objects orbiting the Earth. Examples of debris include non-operational satellites, rocket bodies, and fragments generated from explosions, collisions, or faulty payload assembly.

Loading next visibility...
Identifier
60775, 2024-140FA
Orbit
LEO
Country
Flag of CNCN / PRC
Related business
Manufacturer
SAST
Mission
Spacecraft
Bus & Motor
Unknown
Mass
Unknown
Launch date (UTC)
2024-08-06 (1 year ago)
Launch vehicle
Unknown
Launch site
Taiyaun Space Center, China (TSC)
Object type
Payload
Rocket body
Debris
Shape & HBR
Unknown shape, 0.1 m
Radar Cross Section
Small (<0.1 m²)

Expand to show TLE details & history
Last TLE update: 20 hours ago

TLE from 20 hours ago
0 CZ-6A DEB
1 60775U 24140FA  25312.71154661  .00001818  00000-0  77058-3 0  9998
2 60775  89.0717 303.1890 0028845 192.0214 168.0294 14.24811164 64539
Epoch: 2025-11-08T17:04Z
TLE epoch observation values (Epoch: 2025-11-08T17:04:37.627Z)
Latitude
Longitude
-1.10501°
Altitude
832.476 km
Speed
7.426 km/s
True Right ascension
20h 12m 45s
True Declination
0° 00' 00"
Sunlit
Object was in daylight at epoch
Visualization orbit readout
Latitude
Unknown
Longitude
Unknown
Altitude
Unknown
Speed
Unknown
Apparent Right ascension
Unknown
Apparent Declination
Unknown
Sunlit
N/A
Visualization observer readout
Local Sidereal Time
08:50:44
Azimuth
Unknown
Elevation
Unknown
Doppler factor
Unknown
Orbital elements
Apogee altitude
826.794 km
Perigee altitude
785.349 km
Semi-major axis
7,184.209 km
Eccentricity
0.00288
Inclination
89.0717°
RAAN
303.189°
Arg. of periapsis
192.0214°
True anomaly
168.09772°
Mean anomaly
168.0294°
Eccentric anomaly
168.06358°
Mean motion
3.5643 °/min
Orbital period
101 mins
BSTAR
0.00077058
Loading maneuver chart data...
Computing Atmospheric mass density...
Loading historical data...
Loading historical data...
Loading historical data...
Loading historical data...
Loading historical data...
Loading historical data...
Loading historical data...

Documentation

Showing up to 5 results
|